Location: Newark
(40.9908°N, 0.0353°W)
Time: 18:35:41
(UTC+00:00)

ISS - Pass Details

Date: 30 October 2019
Orbit: 412 x 421 km, 51.6° (Epoch: 15 November)

Event Time Altitude Azimuth Distance (km) Brightness Sun altitude
Exits shadow 04:44:13 29° 360° (N) 803 -2.4 -20.1°
Drops below altitude 10° 04:46:36 10° 39° (NE) 1,508 -0.5 -19.7°
Sets 04:48:51 0° 50° (NE) 2,373 0.8 -19.2°
